Broome, Australia

12:36 PM AWST on December 15, 2018 (GMT +0800)
Broome International

Weather History for YBRM - October, 2018

Change the Weather History Date:

Thursday, October 11, 2018

  Actual Average Record
Temperature  
Mean Temperature 86 °F -  
Max Temperature 99 °F 91 °F - ()
Min Temperature 73 °F 74 °F - ()
Cooling Degree Days 21    
Growing Degree Days 36 (Base 50)    
Moisture  
Dew Point 73 °F    
Average Humidity 75    
Maximum Humidity 95    
Minimum Humidity 28    
Precipitation  
Precipitation 0.00 in 0.01 in - ()
Sea Level Pressure  
Sea Level Pressure 29.85 in    
Wind  
Wind Speed 9 mph ()    
Max Wind Speed 17 mph    
Max Gust Speed -    
Visibility 6.2 miles    
Events      
T = Trace of Precipitation, MM = Missing Value Source: Averaged Metar Reports

Daily Weather History Graph

Daily Weather History Graph

Search for Another Location

Airport or City:

Astronomy

Oct. 11, 2018 Rise Set
Actual Time 5:25 AM AWST 5:50 PM AWST
Civil Twilight 5:03 AM AWST 6:12 PM AWST
Nautical Twilight 4:37 AM AWST 6:38 PM AWST
Astronomical Twilight 4:12 AM AWST 7:04 PM AWST
Moon 6:59 AM AWST (10/11) 7:54 PM AWST (10/11)
Length of Visible Light 13h 09m
Length of Day
12h 25m
Waxing Crescent, 5% of the Moon is Illuminated
Oct 11
Waxing Crescent
Oct 17
First Quarter
Oct 25
Full
Nov 1
Last Quarter
Nov 8
New

Hourly Weather History & Observations

Time (AWST) Temp. Heat Index Dew Point Humidity Pressure Visibility Wind Dir Wind Speed Gust Speed Precip Events Conditions
12:00 AM 79 °F - 75 °F 85% 29.83 in - NW 6.9 mph - -   Clear
12:00 AM 78.8 °F - 75.2 °F 89% 29.83 in 6.2 mi NW 6.9 mph - N/A   Unknown
12:30 AM 78.8 °F - 75.2 °F 89% 29.83 in 6.2 mi NW 8.1 mph - N/A   Unknown
1:00 AM 78.8 °F - 75.2 °F 89% 29.80 in 6.2 mi NW 10.4 mph - N/A   Unknown
1:30 AM 78.8 °F - 75.2 °F 89% 29.80 in 6.2 mi NW 8.1 mph - N/A   Unknown
2:00 AM 79 °F - 75 °F 85% 29.80 in - NW 8.1 mph - -  
2:00 AM 78.8 °F - 75.2 °F 89% 29.80 in 6.2 mi NW 8.1 mph - N/A   Unknown
2:30 AM 78.8 °F - 75.2 °F 89% 29.80 in 6.2 mi NW 5.8 mph - N/A   Unknown
3:00 AM 79 °F - 75 °F 83% 29.81 in - NNW 5.8 mph - -   Clear
3:00 AM 78.8 °F - 75.2 °F 89% 29.80 in 6.2 mi NNW 5.8 mph - N/A   Unknown
3:30 AM 77.0 °F - 75.2 °F 94% 29.80 in 6.2 mi ENE 3.5 mph - N/A   Unknown
4:00 AM 75.2 °F - 73.4 °F 94% 29.83 in 6.2 mi East 8.1 mph - N/A   Unknown
4:37 AM 73.4 °F - 71.6 °F 94% 29.83 in 6.2 mi East 10.4 mph - N/A   Mostly Cloudy
5:00 AM 73 °F - 72 °F 95% 29.85 in - East 10.4 mph - -  
5:00 AM 73.4 °F - 71.6 °F 94% 29.83 in 6.2 mi East 10.4 mph - N/A   Mostly Cloudy
5:12 AM 73.4 °F - 71.6 °F 94% 29.86 in 6.2 mi East 9.2 mph - N/A   Scattered Clouds
5:30 AM 73.4 °F - 71.6 °F 94% 29.86 in 6.2 mi East 8.1 mph - N/A   Unknown
6:00 AM 74 °F - 72 °F 91% 29.88 in - ENE 8.1 mph - -   Clear
6:00 AM 73.4 °F - 71.6 °F 94% 29.86 in 6.2 mi ENE 8.1 mph - N/A   Unknown
6:30 AM 75.2 °F - 73.4 °F 94% 29.89 in 6.2 mi ENE 8.1 mph - N/A   Unknown
7:00 AM 78.8 °F - 71.6 °F 78% 29.89 in - East 8.1 mph - N/A   Clear
8:00 AM 83 °F - 71 °F 60% 29.91 in - ENE 13.8 mph - -  
8:00 AM 82.4 °F 87.2 °F 71.6 °F 70% 29.89 in 6.2 mi ENE 13.8 mph - N/A   Partly Cloudy
8:30 AM 86.0 °F 91.8 °F 71.6 °F 62% 29.89 in 6.2 mi ENE 17.3 mph - N/A   Partly Cloudy
9:00 AM 88 °F - 72 °F 49% 29.91 in - ENE 15.0 mph - -   Clear
9:00 AM 87.8 °F 93.8 °F 71.6 °F 58% 29.89 in 6.2 mi ENE 15.0 mph - N/A   Partly Cloudy
9:30 AM 87.8 °F 93.8 °F 71.6 °F 58% 29.89 in 6.2 mi East 15.0 mph - N/A   Partly Cloudy
10:00 AM 91.4 °F 96.8 °F 69.8 °F 49% 29.89 in 6.2 mi ENE 15.0 mph - N/A   Unknown
10:30 AM 93.2 °F 98.8 °F 69.8 °F 46% 29.89 in 6.2 mi NE 13.8 mph - N/A   Partly Cloudy
11:00 AM 94 °F - 69 °F 34% 29.88 in - NE 13.8 mph - -  
11:00 AM 95.0 °F 99.5 °F 68.0 °F 41% 29.86 in - NE 13.8 mph - N/A   Clear
11:30 AM 95.0 °F 99.5 °F 68.0 °F 41% 29.86 in - East 11.5 mph - N/A   Clear
12:00 PM 96 °F - 66 °F 28% 29.86 in - NE 10.4 mph - -   Clear
12:00 PM 96.8 °F 100.7 °F 66.2 °F 37% 29.86 in - NE 10.4 mph - N/A   Clear
12:30 PM 96.8 °F 100.7 °F 66.2 °F 37% 29.83 in - ENE 10.4 mph - N/A   Clear
1:00 PM 91.4 °F 98.4 °F 71.6 °F 52% 29.83 in - WNW 12.7 mph - N/A   Clear
1:30 PM 87.8 °F 97.6 °F 75.2 °F 66% 29.83 in - NW 17.3 mph - N/A   Clear
2:00 PM 87 °F - 74 °F 59% 29.83 in - NW 16.1 mph - -  
2:00 PM 87.8 °F 97.6 °F 75.2 °F 66% 29.83 in 6.2 mi NW 16.1 mph - N/A   Partly Cloudy
2:30 PM 86.0 °F 95.1 °F 75.2 °F 70% 29.83 in 6.2 mi NW 15.0 mph - N/A   Partly Cloudy
3:00 PM 86 °F - 75 °F 63% 29.82 in - NW 17.3 mph - -   Clear
3:00 PM 86.0 °F 95.1 °F 75.2 °F 70% 29.80 in 6.2 mi NW 17.3 mph - N/A   Partly Cloudy
3:30 PM 84.2 °F 92.3 °F 75.2 °F 74% 29.80 in 6.2 mi NW 15.0 mph - N/A   Partly Cloudy
4:00 PM 84.2 °F 92.3 °F 75.2 °F 74% 29.80 in 6.2 mi NW 15.0 mph - N/A   Unknown
4:30 PM 84.2 °F 92.3 °F 75.2 °F 74% 29.80 in 6.2 mi NW 12.7 mph - N/A   Unknown
5:00 PM 83 °F - 75 °F 71% 29.82 in - NW 12.7 mph - -  
5:00 PM 82.4 °F 89.5 °F 75.2 °F 79% 29.80 in 6.2 mi NW 12.7 mph - N/A   Unknown
5:30 PM 82.4 °F 89.5 °F 75.2 °F 79% 29.83 in 6.2 mi NW 12.7 mph - N/A   Unknown
6:00 PM 82.4 °F 89.5 °F 75.2 °F 79% 29.83 in 6.2 mi NW 13.8 mph - N/A   Unknown
6:30 PM 82.4 °F 89.5 °F 75.2 °F 79% 29.86 in 6.2 mi NNW 12.7 mph - N/A   Unknown
7:00 PM 80.6 °F 86.2 °F 75.2 °F 84% 29.86 in 6.2 mi NNW 12.7 mph - N/A   Unknown
7:30 PM 80.6 °F 86.2 °F 75.2 °F 84% 29.89 in 6.2 mi NNW 12.7 mph - N/A   Unknown
8:00 PM 81 °F - 76 °F 79% 29.90 in - NNW 11.5 mph - -  
8:00 PM 80.6 °F 86.2 °F 75.2 °F 84% 29.89 in 6.2 mi NNW 11.5 mph - N/A   Unknown
8:30 PM 80.6 °F 86.2 °F 75.2 °F 84% 29.89 in 6.2 mi NNW 9.2 mph - N/A   Unknown
9:00 PM 81 °F - 76 °F 79% 29.91 in - NW 10.4 mph - -   Clear
9:00 PM 80.6 °F 86.2 °F 75.2 °F 84% 29.92 in 6.2 mi NW 10.4 mph - N/A   Unknown
9:30 PM 80.6 °F 86.2 °F 75.2 °F 84% 29.92 in 6.2 mi WNW 6.9 mph - N/A   Unknown
10:00 PM 80.6 °F 86.2 °F 75.2 °F 84% 29.89 in 6.2 mi NW 8.1 mph - N/A   Scattered Clouds
10:30 PM 80.6 °F 86.2 °F 75.2 °F 84% 29.89 in 6.2 mi WNW 5.8 mph - N/A   Scattered Clouds
11:00 PM 80 °F - 76 °F 83% 29.91 in - NW 6.9 mph - -  
11:00 PM 80.6 °F 86.2 °F 75.2 °F 84% 29.89 in 6.2 mi NW 6.9 mph - N/A   Scattered Clouds
11:30 PM 78.8 °F - 75.2 °F 89% 29.89 in 6.2 mi NW 6.9 mph - N/A   Scattered Clouds